GW2039 Weather Reports


Display with metric or nautical units.
time (UTC)temp
F
wind
direction
speed
MPH
gust
MPH
rain 1hr
in
rain 24hr
in
rain mn
in
humidity
%
barometer
mb
20260504070303 84 128 13.0 20.0 0.00 0.00 0.00 50 1009.2
20260504070204 84 109 14.0 20.0 0.00 0.00 0.00 50 1009.2
20260504060203 84 123 13.0 24.0 0.00 0.00 0.00 46 1009.5
20260504050704 83 106 6.0 16.0 0.00 0.00 0.00 51 1009.6
20260504050603 83 159 7.0 16.0 0.00 0.00 0.00 52 1009.5
20260504050507 83 183 8.0 18.0 0.00 0.00 0.00 52 1009.6
20260504050404 83 131 8.0 18.0 0.00 0.00 0.00 52 1009.5
20260504050303 83 158 7.0 18.0 0.00 0.00 0.00 52 1009.5
20260504050203 83 167 8.0 18.0 0.00 0.00 0.00 53 1009.5
20260504050103 83 165 11.0 18.0 0.00 0.00 0.00 52 1009.5
20260504050009 83 168 11.0 18.0 0.00 0.00 0.00 52 1009.5
20260504045901 83 129 11.0 18.0 0.00 0.00 0.00 52 1009.5
20260504045801 83 89 12.0 18.0 0.00 0.00 0.00 52 1009.4
20260504045700 83 166 11.0 18.0 0.00 0.00 0.00 52 1009.4
20260504045601 83 150 8.0 17.0 0.00 0.00 0.00 52 1009.4
20260504045505 83 155 7.0 17.0 0.00 0.00 0.00 53 1009.4
20260504045403 83 123 7.0 17.0 0.00 0.00 0.00 53 1009.3
20260504045304 83 146 9.0 17.0 0.00 0.00 0.00 52 1009.4
20260504045201 83 159 10.0 17.0 0.00 0.00 0.00 52 1009.5
20260504045102 83 165 11.0 17.0 0.00 0.00 0.00 52 1009.5
20260504045006 83 177 12.0 15.0 0.00 0.00 0.00 52 1009.5
20260504044903 83 159 10.0 15.0 0.00 0.00 0.00 53 1009.5
20260504044504 82 201 6.0 16.0 0.00 0.00 0.00 55 1009.4
20260504044402 82 174 8.0 17.0 0.00 0.00 0.00 55 1009.4
20260504044304 82 148 9.0 17.0 0.00 0.00 0.00 54 1009.3
20260504044202 82 184 9.0 17.0 0.00 0.00 0.00 54 1009.2
20260504044103 82 199 8.0 17.0 0.00 0.00 0.00 53 1009.3
20260504044006 82 173 8.0 17.0 0.00 0.00 0.00 54 1009.3
20260504043903 82 203 11.0 17.0 0.00 0.00 0.00 54 1009.3
20260504043703 82 196 10.0 17.0 0.00 0.00 0.00 54 1009.2
20260504043602 82 136 9.0 17.0 0.00 0.00 0.00 55 1009.3
20260504043504 82 201 5.0 14.0 0.00 0.00 0.00 55 1009.1
20260504043403 82 188 6.0 14.0 0.00 0.00 0.00 55 1009.2
20260504043300 82 211 9.0 14.0 0.00 0.00 0.00 55 1009.2
20260504043202 82 160 10.0 14.0 0.00 0.00 0.00 54 1009.4
20260504043103 82 171 9.0 16.0 0.00 0.00 0.00 55 1009.3
20260504042904 82 190 10.0 16.0 0.00 0.00 0.00 54 1009.2
20260504042802 82 167 11.0 16.0 0.00 0.00 0.00 54 1009.2
20260504042703 82 159 11.0 16.0 0.00 0.00 0.00 54 1009.2
20260504042505 82 192 11.0 16.0 0.00 0.00 0.00 54 1009.2
20260504042403 82 194 9.0 16.0 0.00 0.00 0.00 55 1009.2
20260504042201 82 154 7.0 15.0 0.00 0.00 0.00 55 1009.1
20260504042102 82 156 9.0 15.0 0.00 0.00 0.00 55 1009.2
20260504042005 82 160 9.0 15.0 0.00 0.00 0.00 55 1009.1
20260504041802 82 127 13.0 19.0 0.00 0.00 0.00 55 1009.1
20260504041703 82 184 12.0 16.0 0.00 0.00 0.00 55 1009.3
20260504041603 82 178 12.0 17.0 0.00 0.00 0.00 55 1009.1
20260504041504 82 160 11.0 15.0 0.00 0.00 0.00 55 1009.2
20260504041303 82 163 11.0 14.0 0.00 0.00 0.00 56 1009.1
20260504041202 82 187 10.0 14.0 0.00 0.00 0.00 56 1009.1
20260504041006 82 186 9.0 15.0 0.00 0.00 0.00 56 1009.1
20260504040902 82 198 9.0 13.0 0.00 0.00 0.00 57 1009.0
20260504040802 82 190 7.0 11.0 0.00 0.00 0.00 57 1009.1
20260504040702 82 169 6.0 12.0 0.00 0.00 0.00 58 1009.0
20260504040602 81 178 8.0 12.0 0.00 0.00 0.00 58 1008.9
20260504040504 81 182 8.0 12.0 0.00 0.00 0.00 58 1009.1
20260504040301 81 175 8.0 12.0 0.00 0.00 0.00 59 1009.0
20260504040202 81 132 9.0 12.0 0.00 0.00 0.00 59 1009.0
20260504040103 81 155 9.0 12.0 0.00 0.00 0.00 58 1009.0
20260504035903 81 146 7.0 12.0 0.00 0.00 0.00 60 1008.9
20260504035758 81 193 5.0 12.0 0.00 0.00 0.00 60 1008.9
20260504035702 81 168 5.0 12.0 0.00 0.00 0.00 60 1009.0
20260504035503 81 166 6.0 13.0 0.00 0.00 0.00 60 1008.9
20260504035403 81 190 7.0 13.0 0.00 0.00 0.00 60 1008.9
20260504035304 81 177 6.0 13.0 0.00 0.00 0.00 61 1008.8
20260504035201 81 157 7.0 13.0 0.00 0.00 0.00 61 1008.8
20260504035103 81 159 6.0 13.0 0.00 0.00 0.00 61 1008.8
20260504035007 81 148 6.0 12.0 0.00 0.00 0.00 61 1008.8
20260504034901 81 186 6.0 12.0 0.00 0.00 0.00 62 1008.7
20260504034802 81 163 6.0 12.0 0.00 0.00 0.00 62 1008.7
20260504034702 81 88 6.0 12.0 0.00 0.00 0.00 61 1008.6
20260504034600 81 151 6.0 12.0 0.00 0.00 0.00 61 1008.7
20260504034505 81 125 8.0 12.0 0.00 0.00 0.00 61 1008.6
20260504034402 81 138 7.0 12.0 0.00 0.00 0.00 61 1008.5
20260504034301 81 117 7.0 11.0 0.00 0.00 0.00 61 1008.6
20260504034202 81 128 7.0 11.0 0.00 0.00 0.00 61 1008.6
20260504034059 81 144 6.0 9.0 0.00 0.00 0.00 61 1008.6
20260504033903 81 188 6.0 13.0 0.00 0.00 0.00 61 1008.5
20260504033801 81 136 6.0 13.0 0.00 0.00 0.00 61 1008.5
20260504033702 81 174 6.0 13.0 0.00 0.00 0.00 61 1008.5
20260504033504 81 178 5.0 13.0 0.00 0.00 0.00 61 1008.5
20260504033203 81 168 9.0 13.0 0.00 0.00 0.00 60 1008.7
20260504033103 81 171 8.0 13.0 0.00 0.00 0.00 60 1008.5
20260504033004 81 184 7.0 15.0 0.00 0.00 0.00 59 1008.5
20260504032902 81 184 9.0 15.0 0.00 0.00 0.00 60 1008.5
20260504032703 81 183 7.0 13.0 0.00 0.00 0.00 60 1008.5
20260504032602 81 169 6.0 12.0 0.00 0.00 0.00 60 1008.4
20260504032505 81 126 6.0 12.0 0.00 0.00 0.00 60 1008.4
20260504032403 81 161 6.0 12.0 0.00 0.00 0.00 60 1008.4
20260504032203 81 161 6.0 12.0 0.00 0.00 0.00 60 1008.4
20260504032102 80 188 6.0 12.0 0.00 0.00 0.00 59 1008.2
20260504032006 80 173 5.0 12.0 0.00 0.00 0.00 59 1008.2
20260504031803 80 170 5.0 9.0 0.00 0.00 0.00 59 1008.1
20260504031703 80 168 5.0 10.0 0.00 0.00 0.00 60 1008.1
20260504031600 80 202 5.0 8.0 0.00 0.00 0.00 60 1008.0
20260504031504 80 211 4.0 7.0 0.00 0.00 0.00 60 1008.1
20260504031403 80 189 3.0 6.0 0.00 0.00 0.00 61 1008.0
20260504031302 80 162 2.0 5.0 0.00 0.00 0.00 61 1008.0
20260504031202 80 148 1.0 6.0 0.00 0.00 0.00 62 1008.0
20260504031103 80 198 2.0 6.0 0.00 0.00 0.00 62 1007.9
20260504030902 80 182 3.0 10.0 0.00 0.00 0.00 61 1007.9
20260504030805 80 211 2.0 10.0 0.00 0.00 0.00 62 1007.9
20260504030703 80 204 2.0 10.0 0.00 0.00 0.00 62 1007.8
20260504030605 80 206 2.0 10.0 0.00 0.00 0.00 61 1007.8
20260504030504 80 201 2.0 10.0 0.00 0.00 0.00 61 1007.7
20260504030203 80 173 6.0 10.0 0.00 0.00 0.00 61 1007.7
20260504030007 79 140 2.0 7.0 0.00 0.00 0.00 63 1007.7
20260504025902 79 169 2.0 7.0 0.00 0.00 0.00 62 1007.7
20260504025803 79 219 3.0 7.0 0.00 0.00 0.00 63 1007.6
20260504025703 79 158 3.0 7.0 0.00 0.00 0.00 63 1007.7
20260504025603 79 188 4.0 7.0 0.00 0.00 0.00 63 1007.7
20260504025505 79 149 3.0 7.0 0.00 0.00 0.00 64 1007.6
20260504025403 79 173 3.0 5.0 0.00 0.00 0.00 64 1007.6
20260504025304 79 145 2.0 7.0 0.00 0.00 0.00 64 1007.5
20260504025200 79 180 2.0 7.0 0.00 0.00 0.00 64 1007.5
20260504025102 79 164 1.0 7.0 0.00 0.00 0.00 64 1007.5
20260504024902 79 152 3.0 7.0 0.00 0.00 0.00 64 1007.5
20260504024803 79 171 2.0 7.0 0.00 0.00 0.00 64 1007.4
20260504024602 79 147 4.0 7.0 0.00 0.00 0.00 64 1007.3
20260504024505 79 126 3.0 7.0 0.00 0.00 0.00 65 1007.4
20260504024402 78 113 3.0 8.0 0.00 0.00 0.00 65 1007.4
20260504024202 78 137 5.0 8.0 0.00 0.00 0.00 65 1007.5
20260504024006 78 134 3.0 8.0 0.00 0.00 0.00 65 1007.4
20260504023902 78 130 3.0 9.0 0.00 0.00 0.00 65 1007.4
20260504023803 78 145 5.0 9.0 0.00 0.00 0.00 65 1007.3
20260504023702 78 134 6.0 9.0 0.00 0.00 0.00 65 1007.4
20260504023506 78 152 4.0 9.0 0.00 0.00 0.00 66 1007.2
20260504023303 78 173 4.0 9.0 0.00 0.00 0.00 66 1007.2
20260504023200 78 128 5.0 9.0 0.00 0.00 0.00 66 1007.2
20260504022902 78 71 4.0 7.0 0.00 0.00 0.00 67 1007.2
20260504022803 78 128 4.0 9.0 0.00 0.00 0.00 67 1007.1
20260504022703 78 124 3.0 9.0 0.00 0.00 0.00 68 1007.1
20260504022602 77 124 2.0 9.0 0.00 0.00 0.00 68 1007.0
20260504022504 77 135 2.0 9.0 0.00 0.00 0.00 68 1007.0
20260504022403 77 141 2.0 9.0 0.00 0.00 0.00 68 1007.1
20260504022304 77 117 2.0 9.0 0.00 0.00 0.00 68 1007.0
20260504022202 77 148 4.0 10.0 0.00 0.00 0.00 68 1007.1
20260504022103 77 112 6.0 10.0 0.00 0.00 0.00 68 1007.1
20260504022008 77 148 7.0 12.0 0.00 0.00 0.00 68 1007.1
20260504021802 77 142 4.0 12.0 0.00 0.00 0.00 69 1007.1
20260504021703 77 189 5.0 12.0 0.00 0.00 0.00 69 1007.1
20260504021601 77 134 5.0 12.0 0.00 0.00 0.00 69 1007.1
20260504021503 77 128 5.0 12.0 0.00 0.00 0.00 69 1007.1
20260504021403 77 106 7.0 12.0 0.00 0.00 0.00 69 1007.1
20260504021302 77 155 7.0 12.0 0.00 0.00 0.00 70 1007.2
20260504021159 77 138 5.0 10.0 0.00 0.00 0.00 71 1007.1
20260504021103 77 136 4.0 7.0 0.00 0.00 0.00 71 1007.1
20260504021006 77 105 3.0 7.0 0.00 0.00 0.00 71 1007.0
20260504020901 77 84 2.0 6.0 0.00 0.00 0.00 72 1006.9
20260504020703 77 92 3.0 6.0 0.00 0.00 0.00 72 1006.8
20260504020505 77 113 2.0 6.0 0.00 0.00 0.00 72 1006.8
20260504020403 77 41 2.0 6.0 0.00 0.00 0.00 72 1006.8
20260504020009 76 82 2.0 4.0 0.00 0.00 0.00 72 1006.7
20260504015902 76 94 1.0 3.0 0.00 0.00 0.00 73 1006.7
20260504015702 76 84 1.0 3.0 0.00 0.00 0.00 73 1006.7
20260504015559 76 96 0.0 3.0 0.00 0.00 0.00 74 1006.6
20260504015506 76 88 1.0 3.0 0.00 0.00 0.00 74 1006.7
20260504015400 76 61 1.0 3.0 0.00 0.00 0.00 74 1006.6
20260504015304 76 161 1.0 3.0 0.00 0.00 0.00 74 1006.7
20260504015202 76 158 2.0 3.0 0.00 0.00 0.00 74 1006.7
20260504015102 75 156 2.0 3.0 0.00 0.00 0.00 74 1006.6
20260504015003 75 111 1.0 4.0 0.00 0.00 0.00 74 1006.6
20260504014903 75 282 0.0 4.0 0.00 0.00 0.00 74 1006.6
20260504014806 75 144 0.0 4.0 0.00 0.00 0.00 74 1006.6
20260504014702 75 144 0.0 4.0 0.00 0.00 0.00 74 1006.5
20260504014606 75 123 0.0 4.0 0.00 0.00 0.00 75 1006.6
20260504014504 75 134 0.0 4.0 0.00 0.00 0.00 75 1006.6
20260504014402 75 92 0.0 4.0 0.00 0.00 0.00 75 1006.6
20260504014202 75 101 2.0 4.0 0.00 0.00 0.00 75 1006.4
20260504014103 75 116 2.0 5.0 0.00 0.00 0.00 75 1006.4
20260504014006 75 125 2.0 5.0 0.00 0.00 0.00 74 1006.4
20260504013901 75 150 2.0 5.0 0.00 0.00 0.00 74 1006.4
20260504013802 75 184 2.0 5.0 0.00 0.00 0.00 74 1006.3
20260504013601 75 186 3.0 5.0 0.00 0.00 0.00 75 1006.3
20260504013505 75 152 2.0 5.0 0.00 0.00 0.00 75 1006.4
20260504013402 75 208 3.0 5.0 0.00 0.00 0.00 75 1006.3
20260504013302 75 134 3.0 6.0 0.00 0.00 0.00 75 1006.4
20260504013202 75 154 3.0 6.0 0.00 0.00 0.00 75 1006.3
20260504013103 75 100 2.0 6.0 0.00 0.00 0.00 75 1006.3
20260504013005 75 113 2.0 4.0 0.00 0.00 0.00 75 1006.3
20260504012902 75 64 2.0 4.0 0.00 0.00 0.00 75 1006.3
20260504012800 75 77 1.0 3.0 0.00 0.00 0.00 75 1006.3
20260504012701 75 106 1.0 3.0 0.00 0.00 0.00 75 1006.3
20260504012602 74 59 0.0 4.0 0.00 0.00 0.00 75 1006.3
20260504012402 74 78 0.0 4.0 0.00 0.00 0.00 75 1006.3
20260504012304 74 101 1.0 4.0 0.00 0.00 0.00 75 1006.2
20260504012202 74 122 2.0 4.0 0.00 0.00 0.00 75 1006.3
20260504012103 74 86 2.0 4.0 0.00 0.00 0.00 75 1006.2
20260504012006 74 112 2.0 4.0 0.00 0.00 0.00 75 1006.2
20260504011903 74 98 2.0 4.0 0.00 0.00 0.00 75 1006.1
20260504011800 74 78 2.0 4.0 0.00 0.00 0.00 75 1006.1
20260504011701 74 73 2.0 4.0 0.00 0.00 0.00 76 1006.2
20260504011600 74 102 2.0 4.0 0.00 0.00 0.00 76 1006.1
20260504011402 74 128 0.0 2.0 0.00 0.00 0.00 76 1006.1
20260504011302 74 78 0.0 1.0 0.00 0.00 0.00 76 1006.0
20260504011204 74 78 0.0 2.0 0.00 0.00 0.00 76 1006.1
20260504011102 74 78 0.0 3.0 0.00 0.00 0.00 76 1006.0
20260504011006 74 127 0.0 4.0 0.00 0.00 0.00 76 1006.1
20260504010903 74 124 0.0 4.0 0.00 0.00 0.00 76 1005.9
20260504010802 74 124 0.0 4.0 0.00 0.00 0.00 76 1006.0
20260504010702 74 90 0.0 4.0 0.00 0.00 0.00 76 1006.0
20260504010602 74 105 0.0 4.0 0.00 0.00 0.00 76 1005.9
20260504010505 74 106 1.0 4.0 0.00 0.00 0.00 76 1005.9
20260504010402 74 121 2.0 4.0 0.00 0.00 0.00 76 1005.9
20260504010303 74 141 3.0 4.0 0.00 0.00 0.00 76 1005.9
20260504010203 73 142 3.0 4.0 0.00 0.00 0.00 76 1005.9
20260504005901 73 27 0.0 4.0 0.00 0.00 0.00 76 1005.8
20260504005802 73 108 0.0 4.0 0.00 0.00 0.00 76 1005.9
20260504005603 73 59 0.0 4.0 0.00 0.00 0.00 77 1005.8
20260504005503 73 74 1.0 4.0 0.00 0.00 0.00 77 1005.8
20260504005401 73 79 2.0 4.0 0.00 0.00 0.00 77 1005.8
20260504005304 73 95 2.0 4.0 0.00 0.00 0.00 77 1005.8
20260504005202 73 117 3.0 4.0 0.00 0.00 0.00 77 1005.8
20260504005004 73 108 1.0 3.0 0.00 0.00 0.00 77 1005.7
20260504004901 73 87 1.0 3.0 0.00 0.00 0.00 77 1005.7
20260504004801 73 88 1.0 3.0 0.00 0.00 0.00 77 1005.7
20260504004700 73 76 1.0 3.0 0.00 0.00 0.00 77 1005.7
20260504004602 73 155 1.0 3.0 0.00 0.00 0.00 77 1005.7
20260504004403 73 147 2.0 6.0 0.00 0.00 0.00 77 1005.7
20260504004204 73 30 1.0 6.0 0.00 0.00 0.00 77 1005.5
20260504004004 73 81 1.0 6.0 0.00 0.00 0.00 77 1005.4
20260504003901 73 62 1.0 6.0 0.00 0.00 0.00 77 1005.5
20260504003800 73 142 2.0 6.0 0.00 0.00 0.00 77 1005.5
20260504003702 73 124 3.0 6.0 0.00 0.00 0.00 77 1005.5
20260504003602 73 82 2.0 4.0 0.00 0.00 0.00 77 1005.4
20260504003402 73 59 1.0 3.0 0.00 0.00 0.00 76 1005.3
20260504003102 73 61 1.0 2.0 0.00 0.00 0.00 76 1005.2
20260504003007 73 169 1.0 2.0 0.00 0.00 0.00 76 1005.2
20260504002903 73 101 1.0 4.0 0.00 0.00 0.00 76 1005.2
20260504002802 73 155 0.0 4.0 0.00 0.00 0.00 76 1005.2
20260504002702 73 317 0.0 4.0 0.00 0.00 0.00 76 1005.1
20260504002601 73 317 0.0 4.0 0.00 0.00 0.00 76 1005.1
20260504002505 73 311 0.0 4.0 0.00 0.00 0.00 76 1005.1
20260504002402 73 319 0.0 4.0 0.00 0.00 0.00 76 1005.1
20260504002303 73 319 1.0 4.0 0.00 0.00 0.00 76 1005.0
20260504002104 73 360 2.0 4.0 0.00 0.00 0.00 75 1004.9
20260504002003 73 360 3.0 4.0 0.00 0.00 0.00 75 1005.0
20260504001902 73 360 3.0 4.0 0.00 0.00 0.00 75 1004.9
20260504001803 74 360 2.0 4.0 0.00 0.00 0.00 75 1005.0
20260504001702 74 321 1.0 4.0 0.00 0.00 0.00 75 1005.0
20260504001600 74 321 1.0 4.0 0.00 0.00 0.00 75 1005.0
20260504001505 74 331 1.0 4.0 0.00 0.00 0.00 75 1005.0
20260504001403 74 337 1.0 4.0 0.00 0.00 0.00 75 1004.9
20260504001302 74 337 1.0 4.0 0.00 0.00 0.00 75 1005.0
20260504001104 74 19 2.0 4.0 0.00 0.00 0.00 74 1004.9
20260504001007 74 15 3.0 4.0 0.00 0.00 0.00 74 1004.9
20260504000903 74 20 2.0 4.0 0.00 0.00 0.00 74 1004.8
20260504000802 74 17 1.0 3.0 0.00 0.00 0.00 74 1004.8
20260504000701 74 12 2.0 3.0 0.00 0.00 0.00 74 1004.6
20260504000602 74 348 2.0 3.0 0.00 0.00 0.00 74 1004.7
20260504000505 75 355 1.0 2.0 0.00 0.00 0.00 74 1004.6
20260504000404 75 349 1.0 2.0 0.00 0.00 0.00 74 1004.6
20260504000303 75 349 0.0 1.0 0.00 0.00 0.00 74 1004.6
20260503235901 75 317 0.0 1.0 0.00 0.09 0.00 73 1004.3
20260503235802 75 317 0.0 1.0 0.00 0.09 0.00 73 1004.3
20260503235701 75 317 0.0 1.0 0.00 0.09 0.00 73 1004.3
20260503235601 75 317 0.0 1.0 0.00 0.09 0.00 73 1004.2
20260503235503 75 317 0.0 1.0 0.00 0.09 0.00 73 1004.2
20260503235401 75 194 0.0 0.0 0.00 0.09 0.00 73 1004.2
20260503235301 75 194 0.0 1.0 0.00 0.09 0.00 73 1004.1
20260503235201 75 194 0.0 1.0 0.00 0.09 0.00 73 1004.2
20260503235058 75 194 0.0 1.0 0.00 0.09 0.00 73 1004.1
20260503235006 75 194 0.0 1.0 0.00 0.09 0.00 73 1004.2
20260503234901 75 194 0.0 1.0 0.00 0.09 0.00 73 1004.1
20260503234800 75 194 0.0 1.0 0.00 0.09 0.00 73 1004.0
20260503234701 75 194 0.0 1.0 0.00 0.09 0.00 73 1004.1
20260503234601 75 194 0.0 1.0 0.00 0.09 0.00 73 1004.0
20260503234503 75 194 0.0 1.0 0.00 0.09 0.00 73 1004.0
20260503234401 75 195 0.0 0.0 0.00 0.09 0.00 73 1003.9
20260503234300 75 195 0.0 0.0 0.00 0.09 0.00 73 1004.0
20260503234101 75 195 0.0 0.0 0.00 0.09 0.00 73 1004.0
20260503234007 75 195 0.0 0.0 0.00 0.09 0.00 73 1003.9
20260503233701 75 195 0.0 0.0 0.00 0.09 0.00 73 1003.9
20260503233601 75 195 0.0 0.0 0.00 0.09 0.00 73 1003.9
20260503233503 75 195 0.0 0.0 0.00 0.09 0.00 73 1003.9
20260503233401 75 195 0.0 0.0 0.00 0.09 0.00 73 1003.8
20260503233201 75 195 0.0 1.0 0.00 0.09 0.00 73 1003.9
20260503233100 75 195 0.0 2.0 0.00 0.09 0.00 73 1003.9
20260503233005 75 195 0.0 2.0 0.00 0.09 0.00 73 1003.8
20260503232904 75 195 0.0 2.0 0.00 0.09 0.00 73 1003.8
20260503232801 75 195 0.0 2.0 0.00 0.09 0.00 73 1003.8
20260503232702 75 195 0.0 2.0 0.00 0.09 0.00 73 1003.9
20260503232503 75 195 0.0 2.0 0.00 0.09 0.00 73 1003.7
20260503232358 75 195 1.0 2.0 0.00 0.09 0.00 73 1003.8
20260503232305 75 195 1.0 2.0 0.00 0.09 0.00 72 1003.7
20260503232200 75 195 1.0 2.0 0.00 0.09 0.00 72 1003.8
20260503232100 75 195 1.0 2.0 0.00 0.09 0.00 72 1003.7
20260503232003 75 195 0.0 1.0 0.00 0.09 0.00 72 1003.8
20260503231900 75 195 0.0 1.0 0.00 0.09 0.00 72 1003.6
20260503231801 75 195 0.0 2.0 0.00 0.09 0.00 72 1003.7
20260503231701 75 195 0.0 3.0 0.00 0.09 0.00 73 1003.7
20260503231604 75 195 0.0 3.0 0.00 0.09 0.00 73 1003.6
20260503231504 75 195 0.0 3.0 0.00 0.09 0.00 73 1003.7
20260503231401 75 195 0.0 3.0 0.00 0.09 0.00 73 1003.8
20260503231301 75 195 0.0 3.0 0.00 0.09 0.00 73 1003.8
20260503231201 75 195 0.0 3.0 0.00 0.09 0.00 73 1003.8
20260503231100 75 195 0.0 3.0 0.00 0.09 0.00 73 1003.9
20260503231006 75 195 1.0 3.0 0.00 0.09 0.00 73 1003.9
20260503230900 75 205 1.0 3.0 0.00 0.09 0.00 73 1003.9
20260503230602 75 200 0.0 0.0 0.00 0.09 0.00 73 1003.9
20260503230504 75 166 0.0 0.0 0.00 0.09 0.00 73 1003.9
20260503230402 75 166 0.0 0.0 0.00 0.09 0.00 73 1003.9
20260503230301 75 166 0.0 0.0 0.00 0.09 0.00 73 1003.9
20260503230200 75 166 0.0 0.0 0.00 0.09 0.00 73 1003.8
20260503230104 75 166 0.0 0.0 0.00 0.09 0.00 73 1003.9
20260503225801 75 166 0.0 0.0 0.00 0.09 0.00 73 1003.9
20260503225600 75 166 0.0 0.0 0.00 0.09 0.00 73 1003.9
20260503225503 75 166 0.0 0.0 0.00 0.09 0.00 73 1003.9
20260503225401 75 166 0.0 0.0 0.00 0.09 0.00 73 1003.9
20260503225201 75 166 0.0 0.0 0.00 0.09 0.00 73 1004.0
20260503225101 75 166 0.0 0.0 0.00 0.09 0.00 73 1004.0
20260503224900 75 166 0.0 0.0 0.00 0.09 0.00 73 1003.9
20260503224801 75 166 0.0 0.0 0.00 0.09 0.00 73 1003.9
20260503224700 75 166 0.0 0.0 0.00 0.09 0.00 73 1003.9
20260503224602 75 166 0.0 0.0 0.00 0.09 0.00 73 1003.9
20260503224503 75 173 0.0 0.0 0.00 0.09 0.00 73 1003.9
20260503224402 75 173 0.0 0.0 0.00 0.09 0.00 73 1003.9
20260503224304 75 171 0.0 0.0 0.00 0.09 0.00 73 1003.9
20260503224201 75 160 0.0 0.0 0.00 0.09 0.00 73 1003.9
20260503224102 75 176 0.0 0.0 0.00 0.09 0.00 73 1003.9
20260503224005 75 197 0.0 0.0 0.00 0.09 0.00 73 1003.9
20260503223901 75 198 0.0 0.0 0.00 0.09 0.00 73 1003.8
20260503223801 75 198 0.0 0.0 0.00 0.09 0.00 73 1003.9
20260503223700 75 198 0.0 0.0 0.00 0.09 0.00 73 1003.9
20260503223503 75 198 0.0 0.0 0.00 0.09 0.00 73 1003.9
20260503223401 75 198 0.0 0.0 0.00 0.09 0.00 73 1003.9
20260503223301 75 198 0.0 0.0 0.00 0.09 0.00 73 1003.9
20260503223201 75 198 0.0 0.0 0.00 0.09 0.00 73 1003.8
20260503223103 75 198 0.0 0.0 0.00 0.09 0.00 73 1003.9
20260503223004 75 198 0.0 0.0 0.00 0.09 0.00 73 1003.8
20260503222800 75 198 0.0 0.0 0.00 0.09 0.00 73 1003.9
20260503222701 75 198 0.0 0.0 0.00 0.09 0.00 73 1003.9
20260503222503 75 198 0.0 2.0 0.00 0.09 0.00 73 1003.9
20260503222304 75 198 0.0 2.0 0.00 0.09 0.00 73 1004.0
20260503222202 75 198 0.0 2.0 0.00 0.09 0.00 73 1003.9
20260503222100 75 186 0.0 2.0 0.00 0.09 0.00 73 1003.9
20260503222003 75 186 0.0 2.0 0.00 0.09 0.00 73 1003.9
20260503221902 75 194 0.0 2.0 0.00 0.09 0.00 73 1004.0
20260503221800 75 194 0.0 2.0 0.00 0.09 0.00 73 1003.9
20260503221702 75 190 1.0 2.0 0.00 0.09 0.00 73 1003.9
20260503221600 75 165 1.0 2.0 0.00 0.09 0.00 73 1004.0
20260503221402 75 156 0.0 1.0 0.00 0.09 0.00 73 1003.9
20260503221300 75 156 0.0 1.0 0.00 0.09 0.00 73 1003.9
20260503221202 75 156 0.0 1.0 0.00 0.09 0.00 73 1003.9
20260503221006 75 157 0.0 1.0 0.00 0.09 0.00 73 1003.9
20260503220900 75 161 0.0 1.0 0.00 0.09 0.00 73 1003.9
20260503220802 75 166 0.0 1.0 0.00 0.09 0.00 73 1003.9
20260503220700 75 172 0.0 2.0 0.00 0.09 0.00 73 1003.9
20260503220401 75 180 0.0 3.0 0.00 0.09 0.00 73 1003.9
20260503220302 75 201 0.0 3.0 0.00 0.09 0.00 73 1003.9
20260503220200 75 173 0.0 5.0 0.00 0.09 0.00 73 1003.9
20260503220100 75 177 0.0 5.0 0.00 0.09 0.00 73 1003.9
20260503220006 75 195 0.0 5.0 0.00 0.09 0.00 73 1003.9
20260503215901 75 194 1.0 5.0 0.00 0.09 0.00 73 1003.9
20260503215800 75 191 1.0 5.0 0.00 0.09 0.00 73 1003.9
20260503215602 75 181 2.0 5.0 0.00 0.09 0.00 73 1003.9
20260503215403 75 207 3.0 5.0 0.00 0.09 0.00 73 1003.9
20260503215300 75 205 3.0 5.0 0.00 0.09 0.00 73 1003.9
20260503215202 75 205 2.0 4.0 0.00 0.09 0.00 73 1003.8
20260503215007 75 196 2.0 4.0 0.00 0.09 0.00 72 1003.9
20260503214700 75 207 1.0 4.0 0.00 0.09 0.00 72 1003.9
20260503214601 75 208 0.0 5.0 0.00 0.09 0.00 72 1003.8
20260503214503 75 256 0.0 5.0 0.00 0.09 0.00 72 1003.8
20260503214402 75 261 0.0 5.0 0.00 0.09 0.00 72 1003.9
20260503214300 75 261 0.0 5.0 0.00 0.09 0.00 72 1003.8
20260503214200 75 229 1.0 5.0 0.00 0.09 0.00 72 1003.8
20260503214101 75 207 1.0 5.0 0.00 0.09 0.00 72 1003.9
20260503214004 75 208 2.0 5.0 0.00 0.09 0.00 72 1003.8
20260503213902 75 219 3.0 5.0 0.00 0.09 0.00 72 1003.9
20260503213700 75 196 3.0 5.0 0.00 0.09 0.00 72 1003.9
20260503213600 75 180 3.0 5.0 0.00 0.09 0.00 72 1003.9
20260503213504 75 193 3.0 5.0 0.00 0.09 0.00 72 1003.9
20260503213400 75 206 2.0 4.0 0.00 0.09 0.00 72 1003.8
20260503213302 75 213 1.0 3.0 0.00 0.09 0.00 72 1003.8
20260503213208 75 207 1.0 2.0 0.00 0.09 0.00 72 1003.9
20260503213100 75 227 0.0 1.0 0.00 0.09 0.00 71 1003.8
20260503213005 75 227 0.0 1.0 0.00 0.09 0.00 71 1003.8
20260503212902 75 227 0.0 1.0 0.00 0.09 0.00 71 1003.8
20260503212801 75 227 0.0 1.0 0.00 0.09 0.00 71 1003.8
20260503212504 75 215 0.0 0.0 0.00 0.09 0.00 71 1003.8
20260503212401 75 215 0.0 0.0 0.00 0.09 0.00 71 1003.8
20260503212300 75 215 0.0 0.0 0.00 0.09 0.00 71 1003.8
20260503212203 75 215 0.0 0.0 0.00 0.09 0.00 71 1003.7
20260503212104 75 215 0.0 1.0 0.00 0.09 0.00 71 1003.7
20260503212006 75 215 0.0 1.0 0.00 0.09 0.00 71 1003.7
20260503211902 75 215 0.0 2.0 0.00 0.09 0.00 71 1003.6
20260503211802 75 215 0.0 2.0 0.00 0.09 0.00 71 1003.8
20260503211702 76 217 0.0 2.0 0.00 0.09 0.00 70 1003.8
20260503211504 76 280 0.0 3.0 0.00 0.09 0.00 70 1003.8
20260503211359 76 280 0.0 3.0 0.00 0.09 0.00 70 1003.9
20260503211200 76 271 1.0 3.0 0.00 0.09 0.00 70 1003.8
20260503211101 76 290 1.0 3.0 0.00 0.09 0.00 70 1003.8
20260503211003 76 304 1.0 3.0 0.00 0.09 0.00 70 1003.8
20260503210902 76 296 1.0 3.0 0.00 0.09 0.00 70 1003.9
20260503210801 76 305 1.0 3.0 0.00 0.09 0.00 70 1003.8
20260503210700 76 288 2.0 3.0 0.00 0.09 0.00 70 1003.8
20260503210401 76 288 1.0 2.0 0.00 0.09 0.00 69 1003.8
20260503210300 76 288 1.0 3.0 0.00 0.09 0.00 69 1003.7
20260503210200 76 250 0.0 3.0 0.00 0.09 0.00 69 1003.7
20260503210100 76 250 0.0 4.0 0.00 0.09 0.00 69 1003.6
20260503210006 76 204 0.0 4.0 0.00 0.09 0.00 69 1003.6
20260503205902 76 172 0.0 4.0 0.00 0.09 0.00 69 1003.6
20260503205800 76 172 1.0 4.0 0.00 0.09 0.00 69 1003.5
20260503205702 76 172 1.0 4.0 0.00 0.09 0.00 69 1003.4
20260503205604 76 173 2.0 4.0 0.00 0.09 0.00 69 1003.4
20260503205505 76 173 2.0 4.0 0.00 0.09 0.00 69 1003.4
20260503205400 76 168 3.0 4.0 0.00 0.09 0.00 69 1003.5
20260503205303 76 169 3.0 4.0 0.00 0.09 0.00 69 1003.4
20260503205202 76 175 3.0 4.0 0.00 0.09 0.00 69 1003.5
20260503205101 76 183 2.0 4.0 0.00 0.09 0.00 69 1003.4
20260503205006 76 175 2.0 4.0 0.00 0.09 0.00 69 1003.4
20260503204901 76 171 1.0 2.0 0.00 0.09 0.00 69 1003.5
20260503204802 76 172 1.0 2.0 0.00 0.09 0.00 69 1003.5
20260503204700 76 167 0.0 2.0 0.00 0.09 0.00 69 1003.4
20260503204559 76 186 0.0 2.0 0.00 0.09 0.00 69 1003.5
20260503204503 76 180 0.0 2.0 0.00 0.09 0.00 69 1003.5
20260503204402 76 173 0.0 2.0 0.00 0.09 0.00 69 1003.5
20260503204300 76 190 0.0 2.0 0.00 0.09 0.00 69 1003.5
20260503204202 76 187 0.0 2.0 0.00 0.09 0.00 69 1003.5
20260503204102 76 190 0.0 2.0 0.00 0.09 0.00 69 1003.5
20260503204004 76 208 0.0 2.0 0.00 0.09 0.00 68 1003.5
20260503203902 76 244 0.0 1.0 0.00 0.09 0.00 68 1003.5
20260503203703 76 244 0.0 0.0 0.00 0.09 0.00 69 1003.5
20260503203602 76 288 0.0 0.0 0.00 0.09 0.00 68 1003.4
20260503203500 76 288 0.0 1.0 0.00 0.09 0.00 68 1003.5
20260503203403 77 288 0.0 1.0 0.00 0.09 0.00 68 1003.5
20260503203302 77 288 0.0 1.0 0.00 0.09 0.00 68 1003.5
20260503203203 77 288 0.0 2.0 0.00 0.09 0.00 68 1003.5
20260503203102 77 288 0.0 2.0 0.00 0.09 0.00 68 1003.5
20260503203003 77 288 0.0 2.0 0.00 0.09 0.00 68 1003.4
20260503202903 77 288 0.0 2.0 0.00 0.09 0.00 68 1003.5
20260503202806 77 288 0.0 2.0 0.00 0.09 0.00 67 1003.5
20260503202700 77 288 0.0 2.0 0.00 0.09 0.00 67 1003.5
20260503202602 77 288 0.0 2.0 0.00 0.09 0.00 67 1003.5
20260503202504 77 288 0.0 2.0 0.00 0.09 0.00 67 1003.5
20260503202402 77 288 0.0 2.0 0.00 0.09 0.00 66 1003.5
20260503202304 77 298 0.0 2.0 0.00 0.09 0.00 66 1003.5
20260503202101 77 355 0.0 1.0 0.00 0.09 0.00 65 1003.5
20260503202005 77 355 0.0 1.0 0.00 0.09 0.00 65 1003.5
20260503201902 78 355 0.0 1.0 0.00 0.09 0.00 65 1003.5
20260503201700 78 355 0.0 1.0 0.00 0.09 0.00 65 1003.5
20260503201601 78 355 0.0 1.0 0.00 0.09 0.00 65 1003.5
20260503201503 78 355 0.0 1.0 0.00 0.09 0.00 65 1003.5
20260503201402 78 355 0.0 1.0 0.00 0.09 0.00 65 1003.5
20260503201302 78 355 0.0 1.0 0.00 0.09 0.00 65 1003.5
20260503201200 78 355 0.0 1.0 0.00 0.09 0.00 65 1003.5
20260503201103 78 355 0.0 1.0 0.00 0.09 0.00 65 1003.5
20260503201003 78 355 0.0 1.0 0.00 0.09 0.00 65 1003.6
20260503200901 78 355 0.0 1.0 0.00 0.09 0.00 65 1003.6
20260503200802 78 355 0.0 1.0 0.00 0.09 0.00 65 1003.5
20260503200701 78 355 0.0 1.0 0.00 0.09 0.00 64 1003.5
20260503200603 78 355 0.0 1.0 0.00 0.09 0.00 64 1003.5
20260503200403 78 355 0.0 1.0 0.00 0.09 0.00 64 1003.6
20260503200304 78 355 0.0 1.0 0.00 0.09 0.00 64 1003.6
20260503200203 78 355 0.0 1.0 0.00 0.09 0.00 64 1003.6
20260503200101 78 355 0.0 1.0 0.00 0.09 0.00 64 1003.6
20260503200007 78 355 0.0 1.0 0.00 0.09 0.00 63 1003.6
20260503195903 78 355 0.0 1.0 0.00 0.09 0.00 63 1003.6
20260503195803 78 355 0.0 2.0 0.00 0.09 0.00 63 1003.7
20260503195704 78 355 0.0 2.0 0.00 0.09 0.00 63 1003.6
20260503195605 78 19 0.0 2.0 0.00 0.09 0.00 63 1003.8
20260503195507 78 55 0.0 2.0 0.00 0.09 0.00 62 1003.8
20260503195403 78 55 0.0 2.0 0.00 0.09 0.00 62 1003.8
20260503195203 78 55 0.0 2.0 0.00 0.09 0.00 62 1003.7
20260503195006 78 93 0.0 2.0 0.00 0.09 0.00 63 1003.7
20260503194907 78 149 0.0 1.0 0.00 0.09 0.00 63 1003.8
20260503194802 78 149 0.0 1.0 0.00 0.09 0.00 63 1003.8
20260503194703 78 149 0.0 1.0 0.00 0.09 0.00 63 1003.8
20260503194605 78 149 0.0 2.0 0.00 0.09 0.00 63 1003.8
20260503194506 78 149 0.0 2.0 0.00 0.09 0.00 63 1003.8
20260503194401 78 149 0.0 2.0 0.00 0.09 0.00 63 1003.9
20260503194302 78 149 0.0 2.0 0.00 0.09 0.00 63 1003.9
20260503194206 78 122 0.0 2.0 0.00 0.09 0.00 63 1003.9
20260503194109 78 84 0.0 2.0 0.00 0.09 0.00 63 1003.9
20260503194008 78 109 0.0 2.0 0.00 0.09 0.00 63 1003.9
20260503193902 78 86 0.0 2.0 0.00 0.09 0.00 63 1003.9
20260503193803 78 78 0.0 2.0 0.00 0.09 0.00 63 1003.9
20260503193602 78 92 0.0 1.0 0.00 0.09 0.00 64 1004.0
20260503193505 78 63 0.0 1.0 0.00 0.09 0.00 64 1003.9
20260503193403 78 67 0.0 1.0 0.00 0.09 0.00 64 1004.0
20260503193305 78 98 0.0 1.0 0.00 0.09 0.00 64 1004.0
20260503193203 78 88 0.0 1.0 0.00 0.09 0.00 64 1003.9
20260503193103 78 49 0.0 1.0 0.00 0.09 0.00 64 1003.9
20260503193006 78 81 0.0 1.0 0.00 0.09 0.00 64 1004.0
20260503192903 78 55 0.0 1.0 0.00 0.09 0.00 64 1004.0
20260503192802 78 53 0.0 1.0 0.00 0.09 0.00 64 1004.0
20260503192605 78 53 0.0 1.0 0.00 0.09 0.00 64 1004.0
20260503192505 78 61 0.0 1.0 0.00 0.09 0.00 64 1004.0
20260503192401 78 68 0.0 1.0 0.00 0.09 0.00 64 1004.0
20260503192305 78 42 0.0 1.0 0.00 0.09 0.00 64 1004.0
20260503192201 78 42 0.0 1.0 0.00 0.09 0.00 64 1004.0
20260503192105 78 42 0.0 1.0 0.00 0.09 0.00 64 1004.0
20260503192007 78 51 0.0 1.0 0.00 0.09 0.00 64 1004.1
20260503191904 78 88 0.0 1.0 0.00 0.09 0.00 64 1004.1
20260503191505 78 163 0.0 0.0 0.00 0.09 0.00 64 1004.2
20260503191405 78 163 0.0 0.0 0.00 0.09 0.00 64 1004.2
20260503191310 78 163 0.0 0.0 0.00 0.09 0.00 64 1004.3
20260503191204 78 163 0.0 4.0 0.00 0.09 0.00 64 1004.3
20260503191110 78 163 0.0 4.0 0.00 0.09 0.00 64 1004.3
20260503191006 78 163 0.0 4.0 0.00 0.09 0.00 64 1004.3
20260503190904 78 163 0.0 4.0 0.00 0.09 0.00 64 1004.3
20260503190805 78 163 0.0 4.0 0.00 0.09 0.00 64 1004.4
20260503190703 78 163 0.0 4.0 0.00 0.09 0.00 64 1004.5
20260503190604 78 163 0.0 4.0 0.00 0.09 0.00 64 1004.4
20260503190511 78 163 0.0 4.0 0.00 0.09 0.00 64 1004.5
20260503190302 78 163 0.0 4.0 0.00 0.09 0.00 64 1004.4
20260503190203 78 163 0.0 4.0 0.00 0.09 0.00 64 1004.5
20260503190104 78 163 0.0 4.0 0.00 0.09 0.00 64 1004.4
20260503190014 78 163 0.0 4.0 0.00 0.09 0.00 64 1004.5
20260503185903 78 163 0.0 4.0 0.00 0.09 0.09 63 1004.4
20260503185803 78 86 0.0 4.0 0.00 0.09 0.09 63 1004.4
20260503185702 78 81 0.0 5.0 0.00 0.09 0.09 63 1004.4
20260503185603 78 80 0.0 5.0 0.00 0.09 0.09 63 1004.5
20260503185506 78 27 1.0 5.0 0.00 0.09 0.09 63 1004.4
20260503185403 78 62 1.0 5.0 0.00 0.09 0.09 63 1004.5
20260503185203 78 40 2.0 5.0 0.00 0.09 0.09 64 1004.3
20260503185102 78 49 2.0 5.0 0.00 0.09 0.09 64 1004.3
20260503185007 78 49 3.0 5.0 0.00 0.09 0.09 64 1004.3
20260503184803 78 46 3.0 5.0 0.00 0.09 0.09 63 1004.3
20260503184704 78 51 3.0 5.0 0.00 0.09 0.09 63 1004.3
20260503184603 78 67 3.0 5.0 0.00 0.09 0.09 63 1004.3
20260503184506 78 54 2.0 4.0 0.00 0.09 0.09 63 1004.3
20260503184403 78 51 1.0 4.0 0.00 0.09 0.09 64 1004.3
20260503184302 78 38 1.0 4.0 0.00 0.09 0.09 64 1004.3
20260503184104 78 39 1.0 4.0 0.00 0.09 0.09 64 1004.3
20260503184007 78 50 2.0 4.0 0.00 0.09 0.09 64 1004.3
20260503183904 78 49 1.0 4.0 0.00 0.09 0.09 64 1004.3
20260503183805 78 74 1.0 2.0 0.00 0.09 0.09 64 1004.3
20260503183703 78 61 1.0 2.0 0.00 0.09 0.09 64 1004.3
20260503183603 78 42 1.0 2.0 0.00 0.09 0.09 64 1004.3
20260503183505 78 55 1.0 2.0 0.00 0.09 0.09 64 1004.4
20260503183404 78 15 0.0 2.0 0.00 0.09 0.09 64 1004.2
20260503183203 78 49 0.0 2.0 0.00 0.09 0.09 64 1004.2
20260503183103 78 28 1.0 3.0 0.00 0.09 0.09 64 1004.3
20260503183008 78 360 1.0 3.0 0.00 0.09 0.09 64 1004.2
20260503182903 78 27 0.0 3.0 0.00 0.09 0.09 64 1004.2
20260503182704 78 50 0.0 4.0 0.00 0.09 0.09 65 1004.2
20260503182603 78 29 0.0 4.0 0.00 0.09 0.09 65 1004.2
20260503182305 77 9 2.0 4.0 0.00 0.09 0.09 64 1004.2
20260503182204 78 30 1.0 4.0 0.00 0.09 0.09 64 1004.1
20260503182102 78 360 2.0 4.0 0.00 0.09 0.09 64 1004.2
20260503182006 78 57 3.0 4.0 0.00 0.09 0.09 64 1004.2
20260503181803 78 5 2.0 4.0 0.00 0.09 0.09 64 1004.2
20260503181703 78 23 1.0 2.0 0.00 0.09 0.09 64 1004.3
20260503181602 78 5 1.0 2.0 0.00 0.09 0.09 64 1004.3
20260503181507 78 13 0.0 4.0 0.00 0.09 0.09 64 1004.3
20260503181304 78 34 1.0 4.0 0.00 0.09 0.09 64 1004.4
20260503181005 78 348 1.0 4.0 0.00 0.09 0.09 65 1004.3
20260503180907 78 337 1.0 4.0 0.00 0.09 0.09 64 1004.3
20260503180803 78 343 1.0 4.0 0.00 0.09 0.09 64 1004.3
20260503180703 78 360 1.0 4.0 0.00 0.09 0.09 64 1004.3
20260503180602 78 350 1.0 2.0 0.00 0.09 0.09 64 1004.3
20260503180504 78 345 0.0 2.0 0.00 0.09 0.09 64 1004.3
20260503180402 78 5 1.0 3.0 0.00 0.09 0.09 64 1004.2
20260503180302 78 351 1.0 3.0 0.00 0.09 0.09 64 1004.3
20260503180202 78 341 0.0 3.0 0.00 0.09 0.09 64 1004.3
20260503180009 78 350 1.0 4.0 0.00 0.09 0.09 64 1004.4
20260503175904 78 329 0.0 6.0 0.00 0.09 0.09 64 1004.4
20260503175802 78 355 1.0 6.0 0.00 0.09 0.09 64 1004.5
20260503175706 78 22 1.0 6.0 0.00 0.09 0.09 64 1004.5
20260503175604 78 325 1.0 6.0 0.00 0.09 0.09 64 1004.5
20260503175507 78 343 1.0 6.0 0.00 0.09 0.09 64 1004.4
20260503175402 78 349 1.0 6.0 0.00 0.09 0.09 64 1004.5
20260503175104 78 32 3.0 6.0 0.00 0.09 0.09 64 1004.5
20260503175010 78 5 2.0 5.0 0.00 0.09 0.09 64 1004.5
20260503174904 78 27 3.0 5.0 0.00 0.09 0.09 64 1004.5
20260503174804 78 32 3.0 5.0 0.00 0.09 0.09 64 1004.5
20260503174703 78 13 2.0 5.0 0.00 0.09 0.09 64 1004.6
20260503174605 79 31 2.0 5.0 0.00 0.09 0.09 64 1004.6
20260503174504 79 29 2.0 5.0 0.00 0.09 0.09 63 1004.7
20260503174304 79 351 2.0 5.0 0.00 0.09 0.09 63 1004.7
20260503174202 79 343 3.0 5.0 0.00 0.09 0.09 63 1004.7
20260503174103 79 351 2.0 5.0 0.00 0.09 0.09 63 1004.7
20260503174006 79 21 2.0 6.0 0.00 0.09 0.09 63 1004.8
20260503173903 79 5 2.0 7.0 0.00 0.09 0.09 63 1004.7
20260503173800 79 348 2.0 7.0 0.00 0.09 0.09 63 1004.7
20260503173703 79 355 1.0 9.0 0.00 0.09 0.09 63 1004.8
20260503173303 79 28 3.0 9.0 0.00 0.09 0.09 62 1004.7
20260503173203 79 5 4.0 9.0 0.00 0.09 0.09 62 1004.6
20260503173007 79 53 4.0 9.0 0.00 0.09 0.09 62 1004.7
20260503172903 79 44 5.0 9.0 0.00 0.09 0.09 62 1004.6
20260503172702 79 71 6.0 7.0 0.00 0.09 0.09 61 1004.6
20260503172602 80 44 5.0 8.0 0.00 0.09 0.09 61 1004.7
20260503172403 80 38 3.0 8.0 0.00 0.09 0.09 60 1004.7
20260503172305 80 26 2.0 8.0 0.00 0.09 0.09 60 1004.8
20260503172102 80 20 3.0 8.0 0.00 0.09 0.09 59 1004.8
20260503172010 80 32 4.0 8.0 0.00 0.09 0.09 59 1004.9
20260503171702 81 5 4.0 8.0 0.00 0.09 0.09 58 1004.9
20260503171505 81 346 3.0 6.0 0.00 0.09 0.09 57 1005.0
20260503171403 81 360 3.0 6.0 0.00 0.09 0.09 56 1004.9
20260503171303 81 351 3.0 6.0 0.00 0.09 0.09 56 1005.0
20260503171203 81 355 2.0 5.0 0.00 0.09 0.09 55 1005.0
20260503171007 81 355 2.0 5.0 0.00 0.09 0.09 55 1005.0
20260503170904 81 360 2.0 5.0 0.00 0.09 0.09 55 1005.0
20260503170803 82 349 1.0 5.0 0.00 0.09 0.09 54 1004.9
20260503170702 81 351 1.0 5.0 0.00 0.09 0.09 54 1004.9
20260503170505 82 28 2.0 8.0 0.00 0.09 0.09 54 1004.9
20260503170403 82 46 3.0 8.0 0.00 0.09 0.09 54 1004.9
20260503170303 82 41 3.0 8.0 0.00 0.09 0.09 54 1004.9
20260503170202 82 35 3.0 8.0 0.00 0.09 0.09 54 1004.8
20260503160204 83 331 0.0 0.0 0.00 0.09 0.09 53 1005.6
20260503151005 83 124 1.0 4.0 0.00 0.09 0.09 56 1005.2
20260503150802 83 74 2.0 6.0 0.00 0.09 0.09 56 1005.1
20260503150701 83 65 2.0 6.0 0.00 0.09 0.09 56 1005.0
20260503150602 83 85 2.0 6.0 0.00 0.09 0.09 56 1005.1
20260503150503 83 67 2.0 6.0 0.00 0.09 0.09 56 1005.0
20260503150400 83 101 2.0 6.0 0.00 0.09 0.09 57 1005.0
20260503150302 83 99 2.0 6.0 0.00 0.09 0.09 57 1005.1
20260503150200 84 82 2.0 6.0 0.00 0.09 0.09 56 1005.0
20260503140303 87 136 2.0 7.0 0.00 0.09 0.09 42 1004.5
20260503140203 87 143 3.0 9.0 0.00 0.09 0.09 42 1004.5
20260503131406 91 296 0.0 1.0 0.00 0.09 0.09 41 1004.1
20260503131303 91 308 0.0 1.0 0.00 0.09 0.09 40 1004.0
20260503131202 91 323 0.0 1.0 0.00 0.09 0.09 40 1004.1
20260503131104 91 336 0.0 1.0 0.00 0.09 0.09 40 1004.0
20260503131006 91 360 0.0 1.0 0.00 0.09 0.09 39 1004.0
20260503130905 91 15 0.0 1.0 0.00 0.09 0.09 39 1003.9
20260503130804 91 34 0.0 1.0 0.00 0.09 0.09 39 1003.9
20260503130603 91 98 0.0 1.0 0.00 0.09 0.09 38 1003.9
20260503130505 91 72 0.0 1.0 0.00 0.09 0.09 38 1004.0
20260503130403 91 72 0.0 1.0 0.00 0.09 0.09 38 1003.9
20260503110703 91 236 3.0 8.0 0.00 0.09 0.09 39 1003.9
20260503110602 91 284 3.0 8.0 0.00 0.09 0.09 39 1003.9
20260503110504 91 263 3.0 8.0 0.00 0.09 0.09 40 1003.9
20260503110306 91 188 3.0 8.0 0.00 0.09 0.09 40 1003.9
20260503110201 91 298 4.0 8.0 0.00 0.09 0.09 39 1003.9
20260503100202 91 256 3.0 11.0 0.00 0.09 0.09 38 1004.1
20260503090505 91 218 8.0 11.0 0.00 0.09 0.09 41 1004.6
20260503090402 91 184 9.0 11.0 0.00 0.09 0.09 40 1004.6
20260503090304 91 184 8.0 13.0 0.00 0.09 0.09 39 1004.6
20260503090201 91 193 7.0 10.0 0.00 0.09 0.09 39 1004.5
20260503081602 90 155 7.0 17.0 0.00 0.09 0.09 42 1004.9
20260503081505 90 157 7.0 17.0 0.00 0.09 0.09 41 1005.0
20260503081401 90 181 8.0 17.0 0.00 0.09 0.09 42 1005.0
20260503081301 90 164 9.0 17.0 0.00 0.09 0.09 42 1005.0
20260503081200 90 152 10.0 17.0 0.00 0.09 0.09 42 1005.1
20260503081100 90 160 12.0 17.0 0.00 0.09 0.09 41 1005.1
20260503081004 90 168 10.0 17.0 0.00 0.09 0.09 41 1005.0
20260503080903 90 202 6.0 16.0 0.00 0.09 0.09 43 1004.8
20260503080802 90 224 3.0 12.0 0.00 0.09 0.09 43 1004.9
20260503080702 90 200 5.0 12.0 0.00 0.09 0.09 43 1005.0
20260503080601 90 173 7.0 12.0 0.00 0.09 0.09 42 1005.0
20260503080504 90 232 7.0 12.0 0.00 0.09 0.09 42 1005.0
20260503080401 90 204 7.0 12.0 0.00 0.09 0.09 42 1005.0
20260503072816 88 163 8.0 14.0 0.00 0.09 0.09 44 1005.0
20260503072600 88 168 7.0 14.0 0.00 0.09 0.09 45 1005.1
20260503072508 88 183 7.0 14.0 0.00 0.09 0.09 44 1005.0
20260503072402 88 194 8.0 14.0 0.00 0.09 0.09 45 1005.0
20260503072311 88 228 8.0 14.0 0.00 0.09 0.09 44 1005.0